sat.trackr.live / text

‹ back to catalog

STARLINK-4271

NORAD 53012 · 2022-076AC

PAYLOAD ACTIVE UNKNOWN

§ Identity

Operator
Country
US
Launch date
2022-07-07
Launch site
AFETR
Launch vehicle
Mass (kg)
RCS (m²)

Purposes: comms

External: N2YO · Heavens-Above · Gunter

§ Orbital elements

Epoch: 2026-09-20T01:22:32.897280Z

Period
94.01 min
Inclination
53.1603°
Eccentricity
0.0001010
Mean motion
15.31707313 rev/d
Perigee alt
470.0 km
Apogee alt
471.4 km
Semi-major
6,848.9 km
B*
8.0568e-6
RAAN
293.8429°
Arg perigee
75.4384°
Mean anomaly
284.6729°
Rev number
23,229

§ Raw data

STARLINK-42711 53012U 22076AC  26263.05732520 -.00000115  00000+0  80568-5 0  99902 53012  53.1603 293.8429 0001010  75.4384 284.6729 15.31707313232298

JSON: /api/v1/satellites/53012 · /tle

For live sub-satellite position, see the globe view (requires WebGL).

§ Visibility from observer

Set your observer location to see the next 7 days of passes ≥ 10°. The values pass through the URL so the page stays shareable.

No JS? Fill the form by hand. The geolocation button needs JavaScript.